Regional Weather Roundup
Issued by NWS

Home | Current Version | Previous Version | Text Only | Print | Product List | Glossary Off
Versions: 1 2 3 4 5 6 7 8 9 10 11 12 13 14 15 16 17 18 19 20 21 22 23 24 25 26 27 28 29 30 31 32 33 34 35 36 37 38 39 40 41 42 43 44 45 46 47 48 49 50

351
ASUS43 KFSD 061810
RWRSD

WEATHER ROUNDUP FOR SOUTH DAKOTA
NATIONAL WEATHER SERVICE SIOUX FALLS SD
1200 PM CST TUE DEC 06 2016

NOTE: "FAIR" INDICATES FEW OR NO CLOUDS BELOW 12,000 FEET WITH NO
SIGNIFICANT WEATHER AND/OR OBSTRUCTIONS TO VISIBILITY.


SDZ001>005-009-010-012>017-061900-
NORTHWEST AND NORTH CENTRAL SOUTH DAKOTA

CITY           SKY/WX    TMP DP  RH WIND       PRES   REMARKS
BUFFALO          N/A      7  -2  66 NW33      29.91F WCI -17
FAITH            N/A      7   2  80 NW28G38   29.96S WCI -16
MOBRIDGE       MIX PCPN  11   3  70 NW35G46   29.88S WCI -12
$$

SDZ012>016-024>037-041>051-057-063-072>074-061900-
SOUTHWEST AND SOUTH CENTRAL SOUTH DAKOTA

CITY           SKY/WX    TMP DP  RH WIND       PRES   REMARKS
RAPID CTY ARPT SUNNY     19   2  47 NW25      29.97F WCI   1
PIERRE         CLOUDY    13   4  67 W31G38    29.98S WCI  -9
CUSTER         SUNNY     16  -6  37 NW14G24   29.80F WCI   2
ELLSWORTH AFB  SUNNY     17   1  49 NW23G30   29.96S WCI  -1
PHILIP         SUNNY     16   4  59 W26G35    30.03F WCI  -3
PINE RIDGE     SUNNY     16   7  67 W10       30.00F WCI   4
SPEARFISH      FAIR       9   0  66 NW20G26   29.96F WCI -11
WINNER         FAIR      20   6  55 W26G33    30.00S WCI   2
$$

SDZ004>011-016>023-039-040-061900-
NORTHEAST SOUTH DAKOTA

CITY           SKY/WX    TMP DP  RH WIND       PRES   REMARKS
ABERDEEN       PTSUNNY   16   5  62 W26G45    29.79R WCI  -3
WATERTOWN      LGT SNOW  15   9  76 W26G40    29.74R WCI  -4
BROOKINGS      FLURRIES  16   9  74 W35G40    29.78F WCI  -5
SISSETON         N/A     20  13  74 NW29G45   29.62F WCI   1
$$

SDZ017-020-022-023-036>040-048>070-061900-
SOUTHEAST SOUTH DAKOTA

CITY           SKY/WX    TMP DP  RH WIND       PRES   REMARKS
SIOUX FALLS    FLURRIES  20  10  65 W26G40    29.88S WCI   2
HURON          LGT SNOW  18   7  62 NW30G40   29.90S WCI  -1
CHAMBERLAIN    SUNNY     18   7  60 W33G39    29.98F WCI  -2
MITCHELL       MOSUNNY   21  10  62 W30G37    29.94F WCI   3
YANKTON        SUNNY    N/A N/A N/A W26G37    29.95F
$$

ABBREVIATIONS USED IN REMARKS
   TC - TEMPERATURE IN CELSIUS
  WCI - WIND CHILL INDEX
   HX - HEAT INDEX
  VSB - VISIBILITY





USA.gov is the U.S. government's official web portal to all federal, state and local government web resources and services.